Main page
METAR-TAF:

METAR-TAF

Airports :

Montes Claros Airport

Montes Claros, Minas Gerais, Brazil

latitude: 16-43S, longitude: 043-52W, elevation: 646 m

Current weather observation

The report was made 1 hour and 2 minutes ago, at 00:00 UTC
Wind 4 kt from the South
Temperature 27°C
Humidity 62%
Pressure 1016 hPa
Visibility 10 km or more
no clouds below 1500 m and no cumulonimbus

METAR: SBMK 220000Z 19004KT CAVOK 27/19 Q1016

Time: 22:02 (01:02 UTC)


TAF: missing

Weather observations and forecasts of more than 4000 airports (METAR and TAF reports).

The available stations are represented by yellow and red dots on the map.

Hover mouse over dot to see the name of the station.

Then click to see weather observations and forecasts.

To change the map : click on the green buttons with a black cross to zoom in, on the green button with a dash to zoom out, or on the green arrows for adjacent maps.


METAR-TAF: